DAL605 LGAV-LCLK

Flight info

Callsign DAL605
Flight time 1h 20m
Altitude 37000
Route DCT KEA UL995 RDS UM601 EVENO M601 BONEK DCT
Aircraft A320/M-SDE3FGHIRWY/LB1

Departure

Time 2026-05-04 23:01
Airport Athens Eleftherios Venizelos International Airport (LGAV)

Arrival

Time 2026-05-05 00:22
Airport Larnaca International Airport (LCLK)
Time Latitude Longitude Altitude Speed Heading
2026-05-04 22:34 37.93000 23.94384 283 ft 0 kts 40°
2026-05-04 22:52 37.92992 23.94376 283 ft 2 kts 40°
2026-05-04 22:53 37.92979 23.94362 284 ft 2 kts 40°
2026-05-04 22:53 37.92966 23.94346 285 ft 2 kts 57°
2026-05-04 22:53 37.92957 23.94327 284 ft 2 kts 57°
2026-05-04 22:53 37.92949 23.94307 287 ft 2 kts 83°
2026-05-04 22:54 37.92949 23.94285 289 ft 3 kts 114°
2026-05-04 22:54 37.92952 23.94276 291 ft 0 kts 125°
2026-05-04 22:57 37.92944 23.94290 283 ft 9 kts 128°
2026-05-04 22:57 37.92893 23.94351 282 ft 10 kts 149°
2026-05-04 22:57 37.92831 23.94358 281 ft 10 kts 202°
2026-05-04 22:58 37.92756 23.94287 282 ft 15 kts 218°
2026-05-04 22:58 37.92675 23.94208 280 ft 9 kts 217°
2026-05-04 22:58 37.92620 23.94201 279 ft 8 kts 160°
2026-05-04 22:58 37.92580 23.94248 279 ft 10 kts 128°
2026-05-04 22:59 37.92557 23.94290 279 ft 0 kts 123°
2026-05-04 23:00 37.92543 23.94316 279 ft 13 kts 123°
2026-05-04 23:00 37.92482 23.94428 280 ft 8 kts 112°
2026-05-04 23:00 37.92507 23.94473 279 ft 8 kts 37°
2026-05-04 23:01 37.92647 23.94604 280 ft 59 kts 37°
2026-05-04 23:01 37.93211 23.95141 288 ft 140 kts 37°
2026-05-04 23:01 37.94131 23.96029 515 ft 182 kts 37°
2026-05-04 23:01 37.95160 23.97030 1431 ft 185 kts 35°
2026-05-04 23:02 37.96179 23.98006 2436 ft 183 kts 33°
2026-05-04 23:02 37.97234 23.99010 2868 ft 201 kts 33°
2026-05-04 23:02 37.98418 24.00134 3308 ft 222 kts 33°
2026-05-04 23:02 37.99668 24.01326 4112 ft 227 kts 34°
2026-05-04 23:03 38.00929 24.02536 5056 ft 227 kts 33°
2026-05-04 23:03 38.02192 24.03752 5949 ft 230 kts 34°
2026-05-04 23:03 38.03476 24.04986 6796 ft 233 kts 34°
2026-05-04 23:03 38.04782 24.06239 7594 ft 238 kts 34°
2026-05-04 23:04 38.06116 24.07520 8364 ft 243 kts 33°
2026-05-04 23:04 38.07477 24.08835 9128 ft 249 kts 36°
2026-05-04 23:04 38.08617 24.10545 9876 ft 262 kts 59°
2026-05-04 23:04 38.09131 24.12807 10478 ft 281 kts 83°
2026-05-04 23:05 38.08812 24.15346 10878 ft 305 kts 106°
2026-05-04 23:05 38.07781 24.17826 11113 ft 333 kts 125°
2026-05-04 23:05 38.06071 24.19935 11415 ft 355 kts 145°
2026-05-04 23:05 38.03856 24.21296 12005 ft 363 kts 164°
2026-05-04 23:06 38.01368 24.21886 12704 ft 367 kts 173°
2026-05-04 23:06 37.98826 24.22349 13442 ft 370 kts 173°
2026-05-04 23:06 37.96226 24.22807 14152 ft 374 kts 173°
2026-05-04 23:06 37.93673 24.23250 14777 ft 377 kts 173°
2026-05-04 23:07 37.91060 24.23700 15410 ft 381 kts 173°
2026-05-04 23:07 37.88426 24.24155 16045 ft 384 kts 173°
2026-05-04 23:07 37.85765 24.24616 16672 ft 387 kts 173°
2026-05-04 23:07 37.83083 24.25085 17286 ft 391 kts 173°
2026-05-04 23:08 37.80383 24.25559 17879 ft 394 kts 173°
2026-05-04 23:08 37.77646 24.26042 18482 ft 398 kts 173°
2026-05-04 23:08 37.74890 24.26526 19013 ft 401 kts 173°
2026-05-04 23:08 37.72117 24.27010 19529 ft 405 kts 173°
2026-05-04 23:09 37.69315 24.27498 20057 ft 408 kts 173°
2026-05-04 23:09 37.66487 24.27988 20576 ft 412 kts 173°
2026-05-04 23:09 37.63635 24.28499 21099 ft 416 kts 171°
2026-05-04 23:09 37.60843 24.29509 21613 ft 421 kts 157°
2026-05-04 23:10 37.58265 24.31268 22116 ft 423 kts 144°
2026-05-04 23:10 37.56038 24.33691 22614 ft 425 kts 130°
2026-05-04 23:10 37.54277 24.36668 23113 ft 424 kts 117°
2026-05-04 23:10 37.53071 24.40041 23617 ft 422 kts 105°
2026-05-04 23:11 37.52169 24.43564 23996 ft 424 kts 104°
2026-05-04 23:11 37.51258 24.47083 24105 ft 424 kts 105°
2026-05-04 23:11 37.50343 24.50579 24133 ft 424 kts 105°
2026-05-04 23:11 37.49416 24.54099 24178 ft 425 kts 105°
2026-05-04 23:12 37.48486 24.57639 24616 ft 427 kts 105°
2026-05-04 23:12 37.47554 24.61194 25016 ft 429 kts 105°
2026-05-04 23:12 37.46615 24.64772 25395 ft 432 kts 105°
2026-05-04 23:12 37.45670 24.68371 25761 ft 435 kts 105°
2026-05-04 23:13 37.44718 24.71997 26096 ft 438 kts 106°
2026-05-04 23:13 37.43757 24.75644 26451 ft 440 kts 106°
2026-05-04 23:13 37.42786 24.79312 26798 ft 443 kts 106°
2026-05-04 23:13 37.41808 24.82998 27150 ft 446 kts 106°
2026-05-04 23:14 37.40826 24.86696 27481 ft 448 kts 106°
2026-05-04 23:14 37.39834 24.90437 27817 ft 451 kts 106°
2026-05-04 23:14 37.39176 24.92916 28036 ft 452 kts 106°
2026-05-04 23:14 37.38179 24.96682 28363 ft 455 kts 106°
2026-05-04 23:15 37.37176 25.00468 28684 ft 458 kts 106°
2026-05-04 23:15 37.36164 25.04272 28972 ft 460 kts 106°
2026-05-04 23:15 37.35145 25.08093 29270 ft 463 kts 106°
2026-05-04 23:15 37.34117 25.11934 29560 ft 465 kts 106°
2026-05-04 23:16 37.33084 25.15797 29846 ft 467 kts 106°
2026-05-04 23:16 37.32045 25.19681 30089 ft 470 kts 106°
2026-05-04 23:16 37.31002 25.23579 30326 ft 472 kts 106°
2026-05-04 23:16 37.29953 25.27490 30541 ft 474 kts 106°
2026-05-04 23:17 37.28894 25.31421 30749 ft 476 kts 106°
2026-05-04 23:17 37.27833 25.35359 30961 ft 477 kts 106°
2026-05-04 23:17 37.26723 25.39303 31164 ft 480 kts 108°
2026-05-04 23:17 37.25523 25.43208 31433 ft 480 kts 109°
2026-05-04 23:18 37.24254 25.47087 31717 ft 480 kts 110°
2026-05-04 23:18 37.22957 25.50938 31999 ft 479 kts 111°
2026-05-04 23:18 37.21649 25.54788 32277 ft 480 kts 111°
2026-05-04 23:18 37.20336 25.58634 32551 ft 480 kts 111°
2026-05-04 23:19 37.19028 25.62483 32806 ft 480 kts 111°
2026-05-04 23:19 37.17727 25.66335 33087 ft 480 kts 110°
2026-05-04 23:19 37.16437 25.70192 33352 ft 480 kts 110°
2026-05-04 23:19 37.15173 25.74002 33611 ft 480 kts 110°
2026-05-04 23:20 37.13875 25.77915 33875 ft 480 kts 110°
2026-05-04 23:20 37.12588 25.81781 34145 ft 480 kts 110°
2026-05-04 23:20 37.11295 25.85638 34367 ft 481 kts 111°
2026-05-04 23:20 37.10000 25.89488 34591 ft 481 kts 111°
2026-05-04 23:21 37.08698 25.93356 34796 ft 481 kts 111°
2026-05-04 23:21 37.07394 25.97216 35009 ft 481 kts 111°
2026-05-04 23:21 37.06090 26.01071 35212 ft 481 kts 111°
2026-05-04 23:21 37.04802 26.04875 35425 ft 481 kts 111°
2026-05-04 23:22 37.03498 26.08733 35602 ft 482 kts 111°
2026-05-04 23:22 37.02191 26.12599 35805 ft 482 kts 111°
2026-05-04 23:22 37.00886 26.16452 35994 ft 482 kts 111°
2026-05-04 23:22 36.99578 26.20306 36177 ft 482 kts 111°
2026-05-04 23:23 36.98266 26.24169 36346 ft 482 kts 111°
2026-05-04 23:23 36.96954 26.28028 36523 ft 482 kts 111°
2026-05-04 23:23 36.95645 26.31886 36689 ft 482 kts 111°
2026-05-04 23:23 36.94336 26.35749 36864 ft 482 kts 111°
2026-05-04 23:24 36.93032 26.39603 37031 ft 482 kts 111°
2026-05-04 23:24 36.91725 26.43462 37096 ft 482 kts 111°
2026-05-04 23:24 36.89101 26.51168 37093 ft 481 kts 112°
2026-05-04 23:25 36.86461 26.58853 37094 ft 482 kts 112°
2026-05-04 23:25 36.83820 26.66537 37088 ft 482 kts 112°
2026-05-04 23:26 36.81179 26.74233 37081 ft 482 kts 111°
2026-05-04 23:26 36.78535 26.81923 37081 ft 482 kts 112°
2026-05-04 23:27 36.75887 26.89590 37083 ft 482 kts 112°
2026-05-04 23:27 36.73220 26.97275 37096 ft 482 kts 112°
2026-05-04 23:28 36.70560 27.04941 37098 ft 481 kts 112°
2026-05-04 23:28 36.67898 27.12591 37088 ft 481 kts 112°
2026-05-04 23:29 36.65243 27.20186 37087 ft 481 kts 112°
2026-05-04 23:29 36.62567 27.27821 37091 ft 481 kts 112°
2026-05-04 23:30 36.59886 27.35448 37075 ft 481 kts 112°
2026-05-04 23:30 36.57200 27.43079 37058 ft 482 kts 112°
2026-05-04 23:31 36.54509 27.50719 37042 ft 482 kts 112°
2026-05-04 23:31 36.51807 27.58347 37053 ft 482 kts 112°
2026-05-04 23:32 36.49098 27.65959 37045 ft 482 kts 112°
2026-05-04 23:32 36.46381 27.73580 37046 ft 482 kts 113°
2026-05-04 23:33 36.43669 27.81195 37031 ft 482 kts 113°
2026-05-04 23:33 36.40953 27.88803 37032 ft 482 kts 113°
2026-05-04 23:34 36.38231 27.96415 37028 ft 482 kts 113°
2026-05-04 23:34 36.35500 28.04003 37039 ft 483 kts 113°
2026-05-04 23:35 36.34143 28.07826 36851 ft 482 kts 109°
2026-05-04 23:35 36.33092 28.11740 37026 ft 478 kts 104°
2026-05-04 23:35 36.31093 28.19624 37046 ft 480 kts 104°
2026-05-04 23:36 36.29068 28.27492 37045 ft 479 kts 105°
2026-05-04 23:36 36.27043 28.35357 37043 ft 479 kts 105°
2026-05-04 23:37 36.25020 28.43207 37033 ft 478 kts 105°
2026-05-04 23:37 36.22995 28.51056 37030 ft 479 kts 105°
2026-05-04 23:38 36.20974 28.58850 37027 ft 479 kts 105°
2026-05-04 23:38 36.18912 28.66740 37021 ft 479 kts 105°
2026-05-04 23:39 36.16876 28.74537 37015 ft 479 kts 105°
2026-05-04 23:39 36.14828 28.82372 37013 ft 479 kts 105°
2026-05-04 23:40 36.12763 28.90220 37009 ft 480 kts 105°
2026-05-04 23:40 36.10692 28.98071 37008 ft 480 kts 105°
2026-05-04 23:41 36.08615 29.05912 37002 ft 480 kts 106°
2026-05-04 23:41 36.06534 29.13744 36998 ft 480 kts 106°
2026-05-04 23:42 36.04453 29.21593 36993 ft 480 kts 106°
2026-05-04 23:42 36.02364 29.29426 36986 ft 481 kts 106°
2026-05-04 23:43 36.00257 29.37277 36988 ft 481 kts 106°
2026-05-04 23:43 35.98151 29.45108 36980 ft 481 kts 107°
2026-05-04 23:44 35.96042 29.52939 36976 ft 481 kts 107°
2026-05-04 23:44 35.93934 29.60771 36970 ft 481 kts 107°
2026-05-04 23:45 35.91833 29.68612 36967 ft 481 kts 107°
2026-05-04 23:45 35.89723 29.76442 36961 ft 481 kts 107°
2026-05-04 23:46 35.87605 29.84275 36961 ft 481 kts 107°
2026-05-04 23:46 35.85479 29.92106 36960 ft 482 kts 107°
2026-05-04 23:47 35.83346 29.99928 36967 ft 482 kts 107°
2026-05-04 23:47 35.81295 30.07792 36961 ft 482 kts 105°
2026-05-04 23:48 35.79354 30.15682 36959 ft 482 kts 105°
2026-05-04 23:48 35.77402 30.23577 36958 ft 482 kts 106°
2026-05-04 23:49 35.75412 30.31455 36951 ft 482 kts 106°
2026-05-04 23:49 35.73405 30.39329 36950 ft 483 kts 106°
2026-05-04 23:50 35.71399 30.47165 36955 ft 483 kts 107°
2026-05-04 23:50 35.69381 30.55056 36954 ft 484 kts 107°
2026-05-04 23:51 35.67355 30.62948 36952 ft 484 kts 107°
2026-05-04 23:51 35.65330 30.70825 36949 ft 484 kts 107°
2026-05-04 23:52 35.63287 30.78718 36946 ft 484 kts 107°
2026-05-04 23:52 35.61245 30.86615 36949 ft 484 kts 107°
2026-05-04 23:53 35.59245 30.94517 36945 ft 485 kts 106°
2026-05-04 23:53 35.57259 31.02423 36935 ft 485 kts 107°
2026-05-04 23:54 35.55255 31.10345 36941 ft 485 kts 107°
2026-05-04 23:54 35.53245 31.18265 36941 ft 486 kts 107°
2026-05-04 23:55 35.51224 31.26183 36938 ft 486 kts 107°
2026-05-04 23:56 35.48165 31.38057 36948 ft 486 kts 107°
2026-05-04 23:56 35.46126 31.45964 36925 ft 487 kts 107°
2026-05-04 23:56 35.45107 31.49918 36672 ft 486 kts 107°
2026-05-04 23:57 35.44089 31.53872 36416 ft 485 kts 107°
2026-05-04 23:57 35.43089 31.57757 36172 ft 485 kts 107°
2026-05-04 23:57 35.42072 31.61693 35925 ft 485 kts 107°
2026-05-04 23:57 35.41049 31.65637 35684 ft 485 kts 107°
2026-05-04 23:58 35.40023 31.69575 35443 ft 485 kts 107°
2026-05-04 23:58 35.38997 31.73506 35204 ft 485 kts 107°
2026-05-04 23:58 35.37971 31.77440 34490 ft 488 kts 107°
2026-05-04 23:58 35.36929 31.81429 33540 ft 493 kts 107°
2026-05-04 23:59 35.35891 31.85400 32990 ft 486 kts 107°
2026-05-04 23:59 35.34863 31.89325 32333 ft 483 kts 107°
2026-05-04 23:59 35.33837 31.93225 31711 ft 479 kts 107°
2026-05-04 23:59 35.32816 31.97099 31090 ft 476 kts 107°
2026-05-05 00:00 35.31802 32.00947 30483 ft 473 kts 107°
2026-05-05 00:00 35.31476 32.02187 30292 ft 472 kts 107°
2026-05-05 00:00 35.29800 32.08562 29312 ft 465 kts 106°
2026-05-05 00:00 35.28820 32.12310 28780 ft 460 kts 106°
2026-05-05 00:01 35.27854 32.16017 28244 ft 455 kts 106°
2026-05-05 00:01 35.26900 32.19685 27731 ft 450 kts 107°
2026-05-05 00:01 35.25966 32.23271 27225 ft 446 kts 107°
2026-05-05 00:01 35.25015 32.26907 26726 ft 441 kts 107°
2026-05-05 00:02 35.24080 32.30462 26242 ft 437 kts 107°
2026-05-05 00:02 35.23162 32.33943 25781 ft 433 kts 107°
2026-05-05 00:02 35.22241 32.37430 25320 ft 429 kts 107°
2026-05-05 00:02 35.21325 32.40879 24868 ft 426 kts 108°
2026-05-05 00:03 35.20413 32.44321 24421 ft 423 kts 108°
2026-05-05 00:03 35.19515 32.47718 23969 ft 420 kts 108°
2026-05-05 00:03 35.18619 32.51107 23513 ft 417 kts 108°
2026-05-05 00:03 35.17727 32.54478 23008 ft 414 kts 108°
2026-05-05 00:04 35.16846 32.57807 22536 ft 411 kts 108°
2026-05-05 00:04 35.15968 32.61109 22101 ft 407 kts 108°
2026-05-05 00:04 35.15386 32.63290 21793 ft 405 kts 108°
2026-05-05 00:04 35.14517 32.66548 21329 ft 403 kts 108°
2026-05-05 00:05 35.13653 32.69784 20870 ft 400 kts 108°
2026-05-05 00:05 35.12790 32.73011 20413 ft 398 kts 108°
2026-05-05 00:05 35.11656 32.77250 19808 ft 395 kts 109°
2026-05-05 00:05 35.11082 32.79398 19497 ft 394 kts 109°
2026-05-05 00:06 35.10233 32.82574 19043 ft 392 kts 109°
2026-05-05 00:06 35.09392 32.85717 18580 ft 384 kts 109°
2026-05-05 00:06 35.08573 32.88764 18159 ft 371 kts 109°
2026-05-05 00:06 35.07778 32.91715 17701 ft 359 kts 109°
2026-05-05 00:07 35.07004 32.94573 17297 ft 354 kts 110°
2026-05-05 00:07 35.06204 32.97419 16897 ft 355 kts 111°
2026-05-05 00:07 35.05389 33.00252 16483 ft 351 kts 111°
2026-05-05 00:07 35.04577 33.03052 16094 ft 348 kts 111°
2026-05-05 00:08 35.03773 33.05825 15706 ft 346 kts 111°
2026-05-05 00:08 35.02973 33.08580 15316 ft 344 kts 111°
2026-05-05 00:08 35.02192 33.11281 15070 ft 329 kts 111°
2026-05-05 00:08 35.01464 33.13813 14874 ft 313 kts 111°
2026-05-05 00:09 35.00738 33.16334 14402 ft 309 kts 111°
2026-05-05 00:09 35.00034 33.18765 13927 ft 308 kts 111°
2026-05-05 00:09 34.99325 33.21216 13480 ft 305 kts 111°
2026-05-05 00:09 34.98622 33.23648 13102 ft 303 kts 111°
2026-05-05 00:10 34.97918 33.26076 12748 ft 304 kts 111°
2026-05-05 00:10 34.97218 33.28483 12321 ft 298 kts 111°
2026-05-05 00:10 34.96533 33.30849 11822 ft 294 kts 111°
2026-05-05 00:10 34.95856 33.33188 11313 ft 291 kts 111°
2026-05-05 00:11 34.95185 33.35495 10815 ft 287 kts 111°
2026-05-05 00:11 34.94520 33.37775 10313 ft 284 kts 111°
2026-05-05 00:11 34.93863 33.40029 9793 ft 280 kts 111°
2026-05-05 00:11 34.93215 33.42252 9248 ft 277 kts 111°
2026-05-05 00:12 34.92719 33.44508 8707 ft 275 kts 100°
2026-05-05 00:12 34.92426 33.46781 8519 ft 274 kts 99°
2026-05-05 00:12 34.92123 33.49076 8387 ft 274 kts 100°
2026-05-05 00:12 34.91817 33.51360 8256 ft 273 kts 100°
2026-05-05 00:13 34.91508 33.53643 8126 ft 272 kts 100°
2026-05-05 00:13 34.91199 33.55915 7998 ft 275 kts 100°
2026-05-05 00:13 34.90874 33.58313 7863 ft 293 kts 100°
2026-05-05 00:13 34.90540 33.60786 7416 ft 297 kts 100°
2026-05-05 00:14 34.90205 33.63272 6990 ft 296 kts 100°
2026-05-05 00:14 34.89874 33.65740 6518 ft 297 kts 99°
2026-05-05 00:14 34.89544 33.68199 6195 ft 291 kts 100°
2026-05-05 00:14 34.89222 33.70600 5975 ft 282 kts 99°
2026-05-05 00:15 34.88912 33.72912 5833 ft 270 kts 100°
2026-05-05 00:15 34.88616 33.75113 5714 ft 257 kts 100°
2026-05-05 00:15 34.88371 33.77183 5603 ft 241 kts 92°
2026-05-05 00:15 34.88603 33.79201 5246 ft 242 kts 69°
2026-05-05 00:16 34.89413 33.80971 4920 ft 239 kts 48°
2026-05-05 00:16 34.90653 33.82275 4615 ft 234 kts 27°
2026-05-05 00:16 34.92150 33.82970 4305 ft 228 kts
2026-05-05 00:16 34.93709 33.83021 4012 ft 222 kts 347°
2026-05-05 00:17 34.95153 33.82469 3730 ft 215 kts 329°
2026-05-05 00:17 34.96347 33.81421 3457 ft 210 kts 311°
2026-05-05 00:17 34.97196 33.80007 3187 ft 205 kts 295°
2026-05-05 00:17 34.97645 33.78381 2925 ft 201 kts 278°
2026-05-05 00:18 34.97677 33.76690 2668 ft 198 kts 262°
2026-05-05 00:18 34.97317 33.75107 2441 ft 191 kts 247°
2026-05-05 00:18 34.96645 33.73777 2167 ft 182 kts 232°
2026-05-05 00:18 34.95797 33.72712 1938 ft 168 kts 227°
2026-05-05 00:19 34.95008 33.71751 1724 ft 154 kts 227°
2026-05-05 00:19 34.94284 33.70866 1522 ft 142 kts 228°
2026-05-05 00:19 34.93604 33.70033 1382 ft 137 kts 227°
2026-05-05 00:19 34.92942 33.69220 1210 ft 134 kts 227°
2026-05-05 00:20 34.92289 33.68417 1044 ft 133 kts 227°
2026-05-05 00:20 34.91640 33.67621 885 ft 132 kts 227°
2026-05-05 00:20 34.90997 33.66816 751 ft 132 kts 227°
2026-05-05 00:20 34.90362 33.65996 631 ft 134 kts 227°
2026-05-05 00:21 34.89685 33.65204 407 ft 135 kts 225°
2026-05-05 00:21 34.89025 33.64401 240 ft 135 kts 227°
2026-05-05 00:21 34.88362 33.63598 72 ft 134 kts 228°
2026-05-05 00:21 34.87737 33.62833 21 ft 101 kts 225°
2026-05-05 00:22 34.87418 33.62452 17 ft 38 kts 221°
2026-05-05 00:22 34.87358 33.62360 18 ft 3 kts 261°
2026-05-05 00:22 34.87362 33.62315 18 ft 9 kts 287°
2026-05-05 00:22 34.87380 33.62282 20 ft 2 kts 312°
2026-05-05 00:23 34.87397 33.62264 19 ft 3 kts 320°
2026-05-05 00:23 34.87411 33.62248 18 ft 0 kts 316°
2026-05-05 00:24 34.87422 33.62235 18 ft 7 kts 316°
2026-05-05 00:24 34.87458 33.62158 18 ft 12 kts 266°
2026-05-05 00:25 34.87404 33.62067 18 ft 16 kts 225°
2026-05-05 00:25 34.87322 33.61968 18 ft 17 kts 225°
2026-05-05 00:25 34.87235 33.61863 18 ft 18 kts 225°
2026-05-05 00:25 34.87144 33.61750 18 ft 19 kts 225°
2026-05-05 00:26 34.87048 33.61633 18 ft 20 kts 225°
2026-05-05 00:26 34.86948 33.61511 18 ft 21 kts 225°
2026-05-05 00:26 34.86884 33.61417 19 ft 11 kts 255°
2026-05-05 00:26 34.86923 33.61335 19 ft 12 kts 316°
2026-05-05 00:27 34.86985 33.61255 19 ft 11 kts 311°
2026-05-05 00:27 34.86981 33.61178 20 ft 11 kts 213°
2026-05-05 00:27 34.86961 33.61159 19 ft 3 kts 220°
2026-05-05 00:27 34.86947 33.61141 20 ft 1 kts 227°
2026-05-05 00:28 34.86945 33.61139 20 ft 0 kts 227°
2026-05-05 00:33 34.95227 33.82423 3717 ft 205 kts 329°
2026-05-05 00:34 34.96517 33.73596 2129 ft 180 kts 230°
2026-05-05 00:34 34.91870 33.67903 941 ft 132 kts 227°
2026-05-05 00:34 34.91355 33.67270 824 ft 133 kts 227°
2026-05-05 00:34 34.88229 33.63433 42 ft 134 kts 227°
2026-05-05 00:35 34.88591 33.63880 43 ft 138 kts 226°
2026-05-05 00:35 34.88550 33.63832 16 ft 0 kts 226°